Theta_e
325 325 325 326 324 322 323 323 323 320 319 318 318 317 317 317 317 316 316 316 316 315 315 315 316 316 316 315 315 316 317 318 319 321 324 327 330 326 322 326 330 331 331 331 332 333 333 332 331 331 331 331 330 330 329 327 327 327 326 326 327 326 325 324 323 323 323 323 322 322 322 322 322 322 322 322 321 322 322 321 322 321 322 322 321
325 325 324 324 323 321 321 320 321 320 318 317 317 317 316 316 316 315 315 315 314 314 314 314 314 314 315 314 314 314 316 318 319 321 322 324 327 328 319 323 327 330 330 330 330 331 332 332 331 330 331 330 330 329 328 327 327 326 326 327 326 324 324 323 323 323 322 322 322 321 321 321 321 321 321 320 321 321 321 321 320 320 320 320 320
324 323 325 323 322 321 320 319 319 318 317 315 316 316 316 316 315 315 315 314 313 313 314 313 313 313 313 313 312 313 314 316 317 319 320 321 324 325 324 321 325 327 329 330 330 329 329 331 330 329 328 329 328 327 326 326 327 324 325 325 324 324 322 322 322 321 321 321 321 321 321 321 321 321 320 320 320 320 319 319 320 320 320 320 320
325 324 323 321 321 321 319 318 318 318 317 315 315 316 316 315 315 315 314 314 313 313 314 313 312 311 312 312 313 313 313 315 316 316 316 321 322 323 323 323 321 324 327 330 329 329 329 329 329 328 328 328 327 326 326 326 325 324 324 324 322 322 322 321 321 321 322 322 321 321 321 321 321 321 321 320 320 320 320 319 319 319 320 320 319
323 324 322 321 321 319 318 318 318 317 316 316 315 314 314 313 313 313 313 313 312 312 313 312 311 310 311 310 311 310 312 314 314 314 313 316 320 321 323 324 324 318 320 324 327 328 329 328 328 328 327 326 326 326 325 325 325 323 322 323 323 323 323 322 321 321 321 321 321 321 321 321 320 320 320 320 320 320 319 319 319 319 318 318 318
323 322 322 320 319 318 317 317 316 315 315 315 314 314 313 312 312 313 311 312 311 311 311 310 310 310 309 308 309 309 310 311 311 310 310 312 315 319 320 322 322 323 323 318 321 324 328 328 327 327 326 326 325 325 325 324 323 322 323 324 323 323 323 322 321 321 320 320 320 320 320 320 320 320 320 319 319 319 319 319 319 319 319 319 318
322 320 320 320 318 317 316 316 315 315 315 314 314 313 313 312 312 311 310 311 311 310 311 310 310 309 308 309 308 308 309 309 309 309 310 310 314 315 318 320 321 322 322 322 314 319 324 327 327 326 326 326 324 324 324 324 323 323 324 324 324 323 323 322 322 321 321 320 320 320 319 319 319 319 319 319 318 318 319 319 319 319 319 319 319
322 321 320 319 318 316 315 314 313 315 312 312 314 311 311 311 312 312 309 308 308 308 310 310 310 309 308 308 308 308 309 308 308 308 307 309 311 312 314 317 320 320 317 321 322 320 319 323 325 326 325 325 325 324 324 325 324 324 324 324 324 324 323 323 323 322 322 320 320 320 320 319 319 319 319 318 318 317 317 318 317 318 317 317 318
321 321 321 319 317 316 312 312 313 315 312 312 312 311 311 310 310 312 312 308 308 307 307 308 308 307 306 306 307 308 309 308 308 308 308 308 309 310 312 314 316 312 318 318 319 321 318 321 324 324 322 323 324 324 325 326 325 325 324 323 324 324 324 324 324 322 321 321 320 320 320 320 320 320 319 319 318 318 317 317 317 317 317 317 316
321 321 321 319 318 315 312 312 312 312 311 311 311 310 309 310 308 309 310 310 308 307 306 307 307 306 304 304 305 306 307 308 308 306 307 308 309 310 311 313 316 318 317 315 315 317 320 317 317 318 316 320 325 325 325 325 326 327 326 326 325 325 324 324 323 322 322 322 321 321 320 320 319 319 319 319 319 319 318 318 318 317 317 317 317
320 320 320 317 315 313 312 311 311 310 310 310 309 308 308 308 308 306 308 310 309 307 306 306 304 303 301 301 302 302 303 305 307 308 307 306 306 306 307 309 312 315 315 315 313 314 315 317 320 322 322 320 326 326 325 325 325 325 326 327 327 326 325 324 323 322 321 321 322 322 321 321 321 320 320 320 319 319 319 319 319 319 319 319 319
319 319 318 315 314 312 311 311 311 310 309 308 307 307 307 307 307 307 306 305 306 306 305 303 302 300 299 298 298 301 302 304 305 306 305 304 304 305 306 306 308 312 314 313 312 312 312 312 311 315 319 319 320 323 325 325 325 325 326 328 327 327 326 325 324 324 323 323 322 322 322 322 322 322 322 321 321 321 320 320 320 320 320 320 320
317 318 316 312 314 313 311 310 311 310 310 308 308 307 308 308 306 306 306 304 303 305 303 304 302 299 299 298 298 297 298 302 303 304 304 303 304 305 304 305 306 308 309 311 310 309 309 309 310 311 313 315 315 313 315 316 318 324 325 325 326 327 327 326 326 325 325 324 324 324 324 323 323 323 323 322 322 322 322 322 322 322 322 322 321
315 316 314 313 312 311 310 310 310 311 310 309 308 305 306 306 306 305 306 305 303 304 304 307 303 301 300 296 297 298 296 296 299 298 301 302 303 303 304 305 305 303 304 307 308 308 308 308 308 310 310 311 312 311 310 314 318 322 323 324 325 325 324 325 326 326 325 325 325 325 325 324 324 324 324 323 323 323 323 323 323 323 323 323 323
316 315 314 313 313 311 310 310 310 309 308 306 306 305 306 305 306 306 304 304 304 304 306 311 303 303 301 299 295 299 300 299 296 292 294 300 301 303 303 303 303 303 305 306 306 306 304 305 307 307 307 308 307 306 305 305 307 308 315 317 319 322 324 325 325 326 325 325 326 325 326 325 325 325 325 325 325 324 324 324 324 324 324 324 324
316 315 314 313 312 312 312 311 310 309 308 306 305 305 306 306 306 306 306 302 302 302 305 306 305 303 300 300 297 298 295 298 294 292 290 293 301 301 301 302 300 300 305 306 305 305 304 303 304 302 301 301 303 304 305 304 299 298 300 305 311 316 318 321 322 323 324 324 325 326 326 326 325 325 325 325 325 325 325 325 325 325 325 325 325
316 316 314 313 313 312 312 311 310 309 309 307 306 306 306 306 307 306 306 305 303 303 301 299 305 309 302 297 295 295 297 298 293 293 292 295 293 294 297 298 299 300 302 301 301 303 303 302 300 299 299 299 300 302 303 301 302 299 302 299 306 308 312 316 319 322 324 324 323 322 323 323 323 324 325 325 326 326 325 325 325 326 325 323 323
316 315 315 313 313 312 311 310 310 308 308 308 307 307 306 306 307 306 306 307 305 303 301 298 303 304 305 303 300 298 297 294 300 296 291 291 292 290 292 293 294 295 295 296 299 298 299 300 297 298 297 299 300 301 302 301 298 301 302 302 305 307 307 313 316 318 321 322 323 322 321 321 321 320 320 321 321 321 322 322 322 322 322 322 322
315 315 314 313 313 312 311 310 310 309 307 308 307 306 306 307 306 306 307 306 306 303 302 299 298 299 301 301 296 299 302 299 299 295 293 293 292 291 291 290 290 292 293 292 293 295 295 295 296 295 295 295 296 297 299 299 298 297 295 297 303 305 306 307 313 315 317 319 322 322 321 321 320 320 320 321 321 321 321 321 321 321 321 322 322
315 314 314 313 312 312 311 310 309 308 306 307 307 307 306 306 305 307 307 306 306 304 302 300 300 300 294 295 295 301 304 306 305 300 299 296 291 289 290 290 290 289 289 290 290 293 293 293 293 293 292 293 294 295 296 297 298 299 297 300 304 305 307 308 309 311 316 317 319 321 320 320 319 319 319 319 319 320 319 319 320 321 322 322 322
314 313 313 313 310 311 310 309 308 308 306 307 307 307 306 305 304 305 305 305 306 306 303 300 302 300 291 292 297 301 301 298 301 300 301 298 295 294 292 289 291 290 290 290 290 290 292 292 292 293 292 293 294 295 295 296 296 296 297 300 303 306 307 308 309 310 312 314 316 317 318 318 318 318 319 319 318 319 320 320 321 321 321 321 321
313 313 313 313 312 311 309 308 308 308 305 307 306 306 306 305 305 305 305 304 305 305 304 302 303 300 300 295 295 297 298 296 299 299 298 301 296 294 296 291 291 290 291 291 291 291 291 291 292 293 293 293 292 293 294 295 295 296 298 299 303 306 307 308 309 311 313 314 315 317 318 319 320 320 321 321 321 320 320 320 320 319 319 319 319
313 312 313 312 311 310 308 308 308 305 304 306 305 305 305 305 305 305 304 304 304 305 304 303 303 298 299 294 298 297 297 298 299 298 299 293 294 296 294 296 297 289 289 290 291 291 291 292 292 292 293 293 292 292 293 294 292 294 296 301 305 307 308 309 311 312 312 313 314 316 319 319 320 320 321 321 320 319 319 318 318 317 317 317 317
313 312 311 312 310 308 307 307 306 306 305 306 305 305 305 305 304 304 304 305 305 304 304 303 302 300 299 294 295 298 298 298 297 297 297 296 296 293 292 290 291 291 290 290 290 291 291 291 290 291 292 292 292 293 293 294 294 294 298 300 306 308 309 310 311 311 312 311 311 312 314 316 317 318 317 318 318 318 318 317 317 317 316 316 315
312 311 311 311 309 308 306 306 305 305 305 306 305 305 304 304 303 303 303 303 303 302 302 302 301 301 300 296 295 293 295 296 298 296 294 294 293 290 288 292 290 289 289 290 290 289 290 289 290 290 290 291 292 293 294 296 297 296 298 300 305 307 308 310 310 310 309 309 310 311 312 313 314 314 315 316 316 316 316 316 315 315 315 315 315
311 311 311 311 309 309 307 307 306 305 305 306 305 305 303 303 303 302 302 302 302 301 302 302 300 300 298 294 293 292 293 293 295 295 293 293 292 290 288 289 290 289 289 290 289 290 289 289 288 289 289 290 291 293 295 297 300 296 298 302 304 305 307 309 309 308 308 308 308 307 307 308 310 311 312 313 313 314 314 314 313 314 314 314 314
312 312 312 311 310 310 308 307 306 305 304 305 304 303 303 302 302 302 300 300 300 300 301 300 300 299 297 297 295 293 293 291 293 295 295 296 295 292 291 287 287 289 289 289 289 289 288 288 289 288 289 290 290 292 293 296 298 296 297 305 306 302 304 306 307 307 306 307 307 306 305 305 306 307 307 307 309 310 311 311 311 311 311 311 310
313 312 312 311 310 310 307 307 306 305 303 303 302 302 302 301 300 301 300 299 297 297 298 298 299 298 297 297 294 293 292 291 293 294 294 296 295 294 294 292 288 286 289 288 289 288 290 289 290 290 288 289 290 291 292 294 297 295 295 303 304 303 302 304 305 305 305 305 304 304 304 304 304 304 304 304 304 304 304 304 305 305 305 306 306
313 313 312 311 311 310 308 308 306 305 303 303 302 302 301 301 300 300 300 299 298 297 296 296 297 297 297 295 295 293 290 290 291 292 293 293 294 294 295 293 292 288 287 287 288 288 288 290 289 289 289 288 290 291 291 293 293 294 298 300 302 303 301 303 304 304 304 303 303 303 303 303 302 302 303 303 303 303 303 303 303 304 304 304 305
313 312 312 311 311 307 308 307 306 304 302 302 301 301 300 300 300 300 300 299 299 298 297 296 296 296 296 295 294 292 289 288 290 291 291 292 292 294 294 295 294 290 289 288 288 289 289 288 288 288 287 288 289 289 290 291 290 292 295 297 299 302 300 301 303 303 303 303 303 302 302 301 301 301 302 302 302 301 302 302 302 302 303 303 304
312 311 310 310 310 309 309 307 306 304 303 302 300 299 299 299 298 298 297 297 298 297 296 296 296 294 294 293 293 292 289 288 288 288 289 291 292 293 294 295 295 294 291 290 287 289 291 289 288 288 288 287 288 288 289 290 290 291 292 294 297 297 297 299 301 302 302 302 302 301 301 300 300 300 300 300 301 301 301 301 301 301 301 301 302
313 312 310 309 309 308 309 307 305 304 303 302 300 299 299 299 298 298 296 296 296 295 295 295 293 293 292 291 291 292 289 288 288 289 289 291 292 293 294 294 295 295 294 291 289 288 290 290 289 289 288 287 287 288 288 287 288 288 288 289 293 292 297 299 299 299 300 301 300 300 300 300 300 299 299 299 300 300 299 299 300 300 299 299 300
313 311 309 309 309 308 308 306 305 304 303 302 301 299 298 298 298 297 295 295 294 295 294 292 292 291 291 291 291 291 288 288 288 288 289 290 291 293 293 293 293 294 293 291 289 286 286 288 289 288 288 287 287 288 287 286 286 286 287 287 287 288 289 292 295 296 298 299 299 299 299 299 299 298 298 298 299 299 299 298 298 298 298 298 298
312 311 310 309 308 308 308 306 305 304 303 301 300 299 298 296 295 296 294 294 294 294 292 292 291 291 291 290 289 288 288 288 287 287 288 288 290 291 291 293 290 293 293 290 288 287 285 286 287 287 287 288 288 287 288 286 285 286 286 285 285 286 288 289 292 293 297 298 299 298 298 298 298 297 297 298 298 298 298 297 296 296 296 297 297
310 311 310 309 307 307 307 306 304 304 302 302 300 299 298 297 295 295 294 294 293 293 291 291 291 291 290 290 289 288 287 287 287 287 287 288 290 290 290 291 291 291 292 292 290 287 285 286 287 286 287 287 288 287 288 288 286 286 286 285 285 284 284 286 289 291 296 297 298 297 297 297 297 297 297 297 297 297 296 296 296 295 295 295 296
309 309 310 309 308 306 305 305 304 303 301 301 300 300 299 297 295 294 294 294 294 293 292 292 291 290 290 289 288 287 287 287 287 287 287 288 289 290 289 289 290 289 290 291 291 288 287 285 286 287 287 288 287 287 286 286 287 286 286 284 283 284 283 284 286 289 293 296 296 296 296 296 296 296 296 296 296 296 295 295 295 295 294 294 295
308 309 308 309 308 306 306 304 302 302 301 301 299 299 299 298 296 295 294 294 294 294 293 292 291 291 290 290 289 288 287 288 287 287 287 287 289 289 289 288 288 288 288 290 289 289 287 286 285 287 288 287 287 286 287 286 285 284 284 285 285 285 284 283 284 285 290 293 293 294 294 295 295 295 295 295 295 295 295 295 294 294 294 294 294
306 308 307 307 306 306 305 304 303 301 301 301 300 299 299 298 297 296 295 294 294 294 293 292 291 291 290 291 289 288 287 287 287 288 288 287 289 289 288 287 287 287 288 288 288 288 288 287 286 285 287 286 285 286 286 288 286 285 285 283 284 284 286 286 285 284 284 286 286 287 290 291 293 293 294 294 294 294 294 294 294 293 294 294 294
303 303 305 305 305 306 305 305 303 302 301 300 300 300 299 298 298 296 295 294 294 294 293 292 292 291 291 290 289 288 288 289 288 287 287 287 288 288 288 287 287 287 287 287 287 287 287 286 286 286 286 287 287 286 284 285 287 287 286 285 285 284 284 286 286 285 285 286 288 290 290 290 292 292 292 292 293 293 294 293 293 293 293 293 293
303 303 303 303 304 305 306 305 304 303 301 299 299 299 299 299 297 296 294 292 292 292 292 292 292 291 291 290 289 289 289 290 289 288 288 287 288 288 288 287 286 287 287 287 287 287 286 286 286 285 286 285 284 285 283 284 285 284 286 285 285 285 285 284 285 286 284 286 287 286 288 290 290 291 291 291 292 292 292 292 292 292 291 292 293
302 303 303 304 303 303 304 304 303 302 302 300 300 299 298 296 295 294 293 292 292 291 291 291 291 291 291 291 290 290 289 289 289 289 289 289 288 288 287 287 286 287 287 287 287 287 287 286 286 286 284 285 285 284 283 284 285 286 285 283 286 286 286 286 284 284 285 286 285 287 286 286 287 286 286 286 288 289 289 289 290 288 289 292 292
301 300 301 302 302 302 302 302 302 303 303 303 298 297 297 296 294 294 293 293 292 291 291 290 290 291 291 291 290 288 288 288 288 288 289 290 290 290 288 287 287 287 286 286 287 287 287 286 285 285 284 284 285 285 285 285 287 286 284 285 284 283 284 285 283 283 282 284 285 285 285 284 286 285 286 286 287 285 287 288 288 290 291 292 293
296 298 300 300 300 301 300 300 299 300 302 302 297 298 298 297 297 294 293 293 292 292 291 290 289 290 290 291 290 289 288 287 288 289 290 290 290 290 290 289 289 288 286 286 286 287 286 286 286 285 286 285 285 286 286 285 285 285 286 286 285 283 284 283 283 283 282 284 284 284 284 283 284 285 285 286 287 287 285 287 289 291 292 293 293
294 296 298 299 300 300 301 300 300 298 298 297 298 298 298 298 296 294 294 293 292 292 291 291 291 290 290 290 290 290 289 289 289 289 289 290 291 291 290 290 290 290 290 288 287 286 286 286 285 286 286 285 285 285 285 284 284 285 286 285 284 284 283 283 283 284 284 284 284 282 283 283 282 285 285 286 287 287 288 289 291 291 292 292 292
294 294 296 297 298 299 298 298 299 300 299 297 298 298 298 298 297 296 294 293 293 293 292 291 291 291 290 290 289 289 290 288 288 289 289 289 290 290 290 290 290 290 290 291 290 288 288 287 286 286 287 287 285 285 286 285 285 284 284 284 284 284 284 282 283 282 280 283 283 280 282 282 282 283 285 285 285 286 287 290 291 291 292 292 291
293 293 294 295 296 297 298 298 297 297 298 297 298 297 297 297 297 296 293 293 293 292 292 291 291 291 291 290 290 289 289 289 289 290 289 289 289 288 288 288 288 288 290 290 289 289 288 288 287 286 288 288 286 287 286 286 284 284 284 284 283 283 282 281 279 281 282 283 284 280 281 282 281 283 284 285 284 285 286 288 290 291 291 291 290
293 293 294 294 294 294 294 296 297 295 296 296 298 297 297 297 297 296 293 293 293 292 292 292 291 291 291 291 290 290 289 289 289 289 289 288 288 288 287 287 287 288 289 289 289 288 288 287 288 288 289 289 289 287 286 286 286 286 285 284 283 281 279 279 281 281 282 281 280 282 282 282 278 282 284 285 284 285 285 288 290 291 290 290 290
293 294 294 294 293 293 293 293 294 295 296 296 297 297 297 298 297 295 293 292 292 292 291 291 291 292 291 291 290 290 289 289 289 290 290 288 288 287 287 287 287 287 288 289 289 289 288 288 288 288 288 288 288 286 286 286 285 283 283 282 282 281 282 283 281 280 281 282 280 282 279 281 278 282 284 283 283 285 285 285 289 290 290 290 290
292 292 293 293 294 293 292 292 293 294 294 295 296 296 297 297 296 295 294 293 293 291 291 291 291 291 291 291 291 290 289 289 290 291 291 290 288 287 287 286 286 286 287 288 289 290 289 289 289 289 290 289 290 289 289 288 286 286 285 283 282 283 282 281 279 278 281 282 280 282 281 282 279 281 282 282 281 284 285 285 284 288 289 289 288
291 292 293 293 293 293 292 292 293 293 292 293 296 296 296 297 295 295 294 294 292 292 291 290 291 291 290 289 290 290 289 289 291 292 292 289 288 287 287 286 285 285 286 286 287 287 289 289 289 289 290 290 290 290 290 289 288 287 285 283 283 283 282 282 280 280 279 279 281 281 282 282 278 278 282 280 282 281 282 283 283 285 289 288 287
291 292 292 293 292 292 292 292 291 293 292 292 294 296 296 296 295 294 295 294 292 292 292 291 291 291 290 289 289 290 290 290 292 292 292 289 288 288 287 286 286 285 286 285 285 285 285 285 286 287 287 288 288 288 287 289 288 287 286 285 284 284 282 282 280 279 279 281 282 281 283 278 279 279 281 281 281 282 277 280 283 284 285 284 284
Wind_Speed
8 7 8 9 7 6 5 4 6 7 7 7 8 9 8 9 9 9 9 7 7 7 7 6 6 6 7 6 5 6 6 5 5 5 6 5 4 4 6 13 13 15 17 20 21 23 24 24 21 21 20 21 21 20 19 19 18 19 20 19 19 20 18 17 17 17 17 16 16 16 16 17 16 16 15 15 15 15 15 14 14 14 14 14 14
7 7 8 8 7 8 6 7 7 6 6 8 8 9 9 7 9 10 10 7 7 7 8 7 7 5 6 7 6 6 6 6 6 5 5 5 5 4 9 14 16 17 18 18 21 22 24 24 23 21 20 20 21 20 20 19 18 18 19 20 19 19 18 18 18 18 17 16 16 16 16 16 15 15 15 15 15 14 14 14 14 14 13 13 13
7 8 8 8 8 8 7 6 6 6 6 7 7 9 9 9 8 9 11 10 8 6 8 8 7 6 5 7 6 6 6 5 5 5 6 5 5 4 8 16 15 16 17 18 19 19 21 24 23 21 18 18 18 18 18 19 19 19 17 18 18 18 18 18 17 17 16 15 15 15 15 15 14 14 13 14 13 13 13 13 13 12 12 12 12
10 9 9 8 8 9 7 7 8 7 5 6 7 8 9 9 8 8 9 10 8 6 6 8 7 6 6 6 6 6 6 5 5 5 5 5 6 6 5 9 17 16 17 19 20 21 21 22 22 21 19 19 18 17 18 19 18 18 18 17 17 17 17 17 16 15 14 14 14 13 13 14 13 13 13 13 13 12 12 12 12 11 10 11 10
9 9 9 9 8 8 7 8 9 6 6 7 8 8 9 9 8 8 8 9 8 7 6 6 9 6 6 6 7 6 5 4 4 4 5 5 6 6 6 8 11 13 14 14 17 20 22 23 23 21 20 18 18 18 18 18 18 18 17 17 16 17 16 15 14 14 14 14 13 13 13 13 13 13 12 12 12 12 11 11 11 10 10 10 10
9 9 9 8 8 8 9 9 8 8 6 7 7 7 8 10 9 9 8 10 9 7 8 7 6 6 5 6 6 5 5 6 4 4 4 4 6 7 7 8 8 8 9 11 13 14 17 21 23 22 19 20 19 18 18 19 18 18 18 17 17 17 16 15 15 15 14 13 13 12 12 12 12 12 11 11 11 11 10 10 10 10 9 9 9
11 9 10 9 9 7 9 7 9 10 7 6 9 7 8 10 9 10 7 8 9 6 8 7 8 8 5 4 5 5 5 4 4 4 4 3 6 7 7 7 8 7 7 5 5 12 14 17 21 22 21 20 21 19 19 19 19 20 19 18 17 17 16 16 15 15 14 13 12 12 12 12 11 11 11 10 10 9 9 8 8 8 8 7 8
11 11 9 9 8 9 8 8 10 9 9 7 7 9 8 7 7 11 11 7 9 6 5 8 7 8 6 4 4 4 5 5 5 5 3 5 6 7 7 6 8 7 7 6 4 8 15 14 18 19 20 19 20 21 20 20 21 20 19 18 18 16 15 15 14 14 13 12 11 11 11 11 11 10 10 9 9 8 8 7 6 6 6 5 5
12 13 11 11 9 9 9 10 10 8 9 10 8 7 9 8 6 8 12 9 9 9 5 8 8 8 6 6 4 4 5 4 5 5 4 5 7 6 7 5 6 10 8 6 5 6 9 11 15 18 18 16 19 21 21 20 20 19 18 18 17 16 15 14 14 13 12 12 11 10 9 9 8 8 8 8 8 8 7 6 5 4 4 4 4
11 13 10 11 11 10 9 11 9 9 11 10 9 9 6 8 8 6 10 11 10 11 8 7 8 9 8 6 5 4 4 4 5 4 6 4 6 7 7 6 7 10 9 7 7 7 7 9 11 15 18 17 18 19 19 19 19 19 18 17 15 15 14 13 13 13 12 11 11 10 9 8 7 7 6 5 6 6 6 5 5 4 3 2 3
12 12 11 10 9 9 11 12 10 7 8 10 9 10 9 6 8 8 7 10 11 11 10 9 8 9 7 6 5 4 3 4 5 6 6 5 2 7 7 6 5 8 10 8 7 7 7 6 6 6 9 14 10 13 17 18 18 18 17 18 18 16 14 13 12 12 11 10 10 9 9 8 8 6 6 5 4 4 4 4 4 4 3 3 2
12 12 12 11 10 9 11 12 12 12 11 9 9 11 13 12 8 9 11 7 7 11 10 11 10 8 8 7 6 5 5 4 5 5 6 5 3 3 7 5 6 7 10 9 7 7 7 7 6 7 7 13 15 13 12 8 8 11 10 9 11 13 15 14 12 12 11 10 10 9 8 8 8 8 7 7 6 6 5 5 4 4 4 2 3
11 12 11 10 11 10 11 11 11 12 12 12 11 10 10 11 10 7 12 12 6 9 11 13 12 7 7 7 7 5 5 5 5 4 5 4 3 3 5 7 6 4 6 9 9 8 7 8 6 6 7 7 9 12 11 8 8 9 10 11 11 10 11 10 11 10 11 10 10 9 9 9 9 9 8 8 7 8 7 7 6 6 6 5 5
11 11 12 12 11 11 11 12 11 11 13 13 12 10 12 11 10 7 6 14 10 10 11 14 8 9 9 5 5 5 5 5 5 5 3 3 4 2 3 6 8 5 4 8 8 7 8 7 7 6 6 6 6 6 6 6 5 7 7 6 8 8 8 10 10 10 8 9 8 9 10 10 9 9 9 8 8 8 8 7 7 6 5 5 4
10 12 12 13 13 12 13 12 12 11 11 11 13 13 11 14 14 12 9 4 9 9 13 12 10 10 8 9 5 4 1 2 3 4 3 2 2 3 2 5 6 4 3 5 6 6 5 6 7 7 5 6 5 5 4 4 5 7 6 4 3 4 7 9 9 10 9 9 9 11 10 9 9 9 8 8 8 8 8 8 7 6 6 5 5
14 14 11 13 13 13 14 13 13 12 12 13 13 15 12 12 13 14 12 12 8 8 7 5 14 14 10 7 6 5 5 6 3 1 2 2 2 3 0 5 5 4 2 5 5 5 5 4 7 6 6 5 4 4 3 3 6 7 6 5 3 2 4 6 7 8 8 8 9 11 12 10 9 8 8 8 8 9 8 8 7 7 7 6 6
15 15 14 16 15 14 13 12 13 12 13 14 14 15 15 14 15 14 15 12 13 10 8 5 14 14 13 9 3 1 8 7 7 1 1 2 2 1 1 2 5 4 3 3 3 3 5 6 6 5 5 4 4 4 4 3 4 4 5 4 4 3 1 6 9 10 11 10 9 9 10 10 10 10 10 10 10 11 9 8 9 10 8 5 6
14 13 14 14 15 15 15 14 13 13 12 13 13 14 15 15 15 15 15 14 15 13 10 5 8 6 12 6 6 8 13 9 12 7 1 1 1 1 1 2 2 4 3 3 4 3 2 5 5 5 4 3 3 3 3 2 2 3 3 4 5 5 3 2 7 10 10 11 11 11 10 10 9 7 7 6 6 6 7 8 9 10 9 9 8
14 13 14 16 14 13 14 14 13 13 12 12 12 14 15 15 13 12 13 11 12 14 15 12 5 4 5 3 5 5 11 15 12 7 8 2 1 0 1 2 2 3 4 2 3 4 2 3 5 4 3 2 2 3 3 3 4 5 6 7 6 5 4 2 2 5 11 11 12 12 12 12 11 10 9 8 8 8 8 8 8 8 8 9 10
13 13 12 14 15 14 14 14 14 13 14 14 15 14 12 13 14 15 13 12 14 14 14 12 15 11 6 5 7 9 16 9 8 15 14 15 8 2 2 2 2 2 1 1 1 3 5 3 5 5 3 2 2 2 2 3 3 3 4 6 6 7 6 6 4 1 4 12 13 13 13 12 11 10 10 10 10 9 9 8 8 9 11 12 12
15 14 12 14 15 15 15 14 14 13 13 13 13 14 17 15 13 13 14 13 14 13 13 13 12 10 8 3 6 8 7 1 8 2 9 13 9 11 7 2 3 2 2 1 1 1 1 2 2 4 3 3 3 2 2 2 2 3 4 6 6 6 7 7 5 3 2 7 11 12 12 12 12 12 11 11 11 11 11 12 11 12 11 11 12
14 15 13 14 17 16 15 15 15 14 13 14 14 15 15 16 17 15 14 15 11 12 15 12 10 8 12 7 8 8 8 5 7 9 3 10 15 14 12 12 10 3 1 1 1 1 1 1 2 2 3 3 2 3 2 3 3 3 4 8 7 7 9 10 8 5 5 6 9 11 12 13 14 14 14 14 14 14 13 13 12 12 12 12 12
14 14 15 15 17 16 15 15 15 13 13 14 14 15 14 14 15 16 16 16 12 12 13 13 10 9 12 7 12 12 12 13 13 12 11 8 4 10 8 9 9 7 1 1 1 2 2 1 2 2 2 3 3 3 3 3 4 5 8 8 9 9 11 12 9 9 11 12 12 10 9 11 13 15 15 15 14 14 13 13 13 13 13 13 13
14 14 14 15 15 14 15 16 15 15 15 13 13 14 14 13 12 13 12 13 13 13 12 13 15 12 13 6 5 5 5 8 7 8 7 7 8 9 10 5 5 3 3 3 4 4 3 3 2 1 2 2 3 3 4 5 4 10 8 9 10 11 13 12 12 11 12 12 12 12 12 12 12 12 13 14 14 14 14 14 14 14 13 13 13
15 15 16 18 15 14 15 14 13 14 15 16 14 15 14 13 14 14 14 16 13 13 13 15 16 15 15 9 6 7 7 4 8 10 6 7 9 11 4 2 4 4 2 1 3 3 3 3 1 1 2 3 3 3 3 4 5 8 10 8 13 13 13 14 13 13 12 12 11 12 13 14 13 14 15 15 15 15 15 14 14 14 14 13 13
17 17 16 18 15 17 17 17 16 15 16 16 15 15 15 14 14 14 16 14 13 14 13 14 13 12 9 9 9 8 5 5 9 9 10 11 10 13 10 3 6 6 1 1 1 3 2 2 2 0 1 3 4 4 4 5 6 9 11 10 12 14 14 14 14 12 12 11 13 14 14 14 15 15 15 15 15 15 15 15 14 14 14 14 14
18 17 17 19 17 14 18 18 16 15 14 13 11 12 14 13 12 14 11 9 12 13 11 13 13 13 13 13 10 7 7 6 8 8 7 9 12 11 16 12 5 5 4 1 1 1 4 2 1 1 1 2 3 4 5 4 7 11 11 9 8 14 14 15 15 14 13 13 13 13 14 14 15 16 16 15 15 15 15 15 15 14 14 14 14
16 17 18 17 18 17 18 18 17 17 15 14 15 13 12 12 11 11 13 10 11 13 11 12 13 14 13 10 9 10 8 8 9 8 7 5 6 9 8 13 16 8 5 5 3 2 4 3 2 1 1 2 2 3 5 8 6 10 10 8 7 8 13 14 15 15 16 15 15 15 15 14 14 15 15 15 14 14 14 14 14 14 14 13 13
14 15 19 18 17 17 19 20 19 17 17 16 16 16 15 14 14 14 14 12 13 14 10 11 12 12 10 13 12 8 8 7 8 8 7 7 6 8 10 13 14 16 9 6 7 5 6 3 5 3 1 2 4 2 4 4 6 8 7 8 8 7 11 14 15 16 16 16 16 16 15 14 15 15 14 14 14 14 14 14 14 14 13 13 12
17 15 17 20 18 19 17 18 18 18 18 16 15 14 13 12 14 15 15 15 15 13 11 10 10 9 10 9 9 8 8 7 7 9 8 9 10 8 9 10 11 15 11 11 7 4 7 2 1 5 4 4 2 3 2 4 5 8 7 8 8 7 13 14 15 16 16 16 16 15 15 15 14 14 13 14 14 14 14 13 13 13 13 12 12
17 17 16 18 19 18 17 16 16 18 19 18 17 15 16 12 12 12 11 12 12 12 11 13 12 10 12 13 10 9 9 9 8 8 7 7 9 9 7 7 7 7 13 9 9 2 3 7 2 1 6 5 3 4 3 3 4 7 7 7 7 11 13 11 14 15 15 16 16 16 15 15 14 13 13 13 13 13 13 13 12 12 12 12 12
20 21 17 17 19 19 17 16 16 17 19 18 18 18 16 14 14 11 12 14 14 13 12 11 10 11 13 12 12 10 7 6 7 8 8 8 8 7 7 6 5 4 9 11 13 11 3 2 5 6 5 6 4 6 5 3 3 5 4 5 9 10 8 7 12 14 14 16 16 16 15 15 14 14 13 13 13 13 12 11 11 11 11 11 11
18 19 20 19 19 20 19 17 18 17 18 18 17 16 16 16 14 15 14 15 16 13 12 12 10 11 12 12 12 11 9 8 5 7 7 9 8 6 6 5 6 6 8 8 10 7 3 1 5 7 6 7 4 3 5 3 3 3 6 3 3 5 4 4 6 11 13 14 15 15 15 15 15 14 14 13 12 12 12 11 11 10 10 10 10
20 21 21 18 17 19 20 18 18 17 17 18 18 17 17 16 15 11 13 15 15 14 13 14 13 11 13 13 10 8 9 10 9 9 9 9 9 9 8 8 6 8 7 6 8 15 8 4 6 5 6 2 5 2 6 6 4 3 5 4 3 3 3 2 4 5 12 13 14 15 15 14 14 14 13 12 12 12 12 11 11 10 9 9 9
15 19 21 20 19 17 20 19 17 18 18 17 17 18 18 19 18 16 15 17 17 16 16 16 15 13 12 12 12 10 8 9 9 8 9 10 9 10 10 7 9 9 7 8 11 9 14 7 6 8 7 4 4 6 5 4 3 4 6 4 3 3 3 2 3 3 11 13 14 14 14 13 13 12 12 11 11 11 11 11 11 9 9 9 9
19 17 18 20 20 20 16 18 20 18 18 17 16 17 20 19 18 18 18 17 17 17 19 18 17 15 15 14 12 12 11 12 10 8 8 10 10 10 10 8 8 9 8 8 11 12 8 12 8 9 7 7 3 4 4 4 6 4 4 4 3 4 3 3 3 3 7 12 12 12 12 12 11 11 11 10 10 10 10 10 10 9 9 8 8
20 19 19 20 20 21 21 17 16 17 19 18 17 16 16 18 19 18 18 18 18 19 18 18 18 18 18 17 16 14 13 13 11 10 9 11 11 10 11 9 7 6 6 8 7 11 12 12 8 5 5 3 4 5 5 7 4 4 2 3 3 3 3 2 3 3 5 9 10 10 10 10 10 10 10 10 9 10 10 10 9 9 8 7 7
14 19 20 18 19 21 21 21 18 16 16 19 19 18 17 17 18 18 17 18 18 19 18 17 17 17 17 17 16 17 16 15 14 14 14 13 12 11 10 8 7 7 9 7 9 9 12 13 11 8 6 7 6 4 4 5 7 6 4 3 2 1 3 4 2 2 2 3 2 3 5 5 5 7 8 8 9 9 9 9 8 7 6 4 4
15 12 17 20 18 21 21 21 21 19 16 16 18 19 17 17 18 19 18 17 17 16 17 18 18 17 17 17 17 17 18 18 17 16 15 13 12 12 12 11 10 11 11 10 10 12 11 13 5 5 7 3 7 8 3 2 3 3 7 7 4 0 0 3 5 1 1 2 4 4 3 3 3 3 4 5 7 8 8 8 7 5 4 2 3
17 17 17 17 17 17 19 19 18 19 20 17 14 16 17 17 17 18 18 18 16 14 15 17 18 18 17 16 17 19 20 18 18 17 17 15 12 12 10 11 11 12 12 11 12 11 10 11 10 10 6 7 5 3 3 4 5 1 5 4 9 6 4 1 1 4 1 2 3 2 2 4 3 3 3 3 4 6 6 5 4 2 2 2 3
17 19 18 18 17 17 17 18 18 17 18 18 17 17 16 16 14 15 17 19 18 17 15 15 16 17 17 16 17 18 20 21 24 21 20 18 16 14 12 13 14 13 12 10 10 8 9 8 7 6 9 8 7 11 10 9 14 15 8 4 4 4 3 4 1 0 1 3 2 3 2 1 3 2 1 2 2 3 4 2 2 2 1 1 2
17 16 17 17 17 17 16 17 18 18 19 16 20 26 22 17 15 13 13 16 18 17 16 15 15 16 17 16 16 23 24 25 24 24 24 24 23 19 17 16 16 15 15 14 12 11 11 11 10 11 10 10 11 12 15 13 8 7 10 8 9 5 4 3 1 1 2 2 4 5 3 1 2 2 2 3 2 1 1 2 1 2 2 2 2
11 17 16 17 17 17 16 15 15 15 15 15 28 27 27 27 20 16 15 14 16 16 15 16 15 15 14 15 15 17 18 20 22 25 24 25 25 24 26 25 22 21 19 18 16 14 15 13 10 10 13 16 14 9 8 8 8 12 10 7 7 7 9 10 8 2 2 6 4 3 4 1 2 4 2 3 4 2 1 2 4 5 4 4 4
10 11 17 18 17 15 15 17 15 13 11 14 25 29 30 29 23 17 17 16 15 15 16 16 14 15 16 14 12 12 13 16 16 18 22 25 25 24 26 25 25 25 27 23 19 14 14 13 13 16 15 16 15 8 8 8 9 6 7 7 10 13 12 10 7 7 5 8 5 3 3 1 1 2 3 4 3 3 3 4 6 5 5 5 4
11 12 15 16 16 16 15 13 16 18 16 16 18 26 28 28 29 23 14 15 16 15 16 17 16 16 15 14 13 11 12 19 17 16 17 18 21 25 25 25 24 24 24 27 29 26 20 19 19 17 16 15 15 14 16 16 13 13 10 7 8 9 7 10 5 3 5 7 5 3 4 3 2 3 4 3 2 3 3 5 6 6 6 5 4
11 12 12 14 14 16 17 16 12 10 13 24 28 25 24 27 29 24 15 16 16 17 18 17 16 16 17 16 14 13 12 14 14 16 16 15 15 15 16 16 15 20 23 24 24 25 22 18 18 20 18 14 19 18 14 13 17 16 15 14 11 10 9 4 1 1 4 4 5 5 3 3 2 3 4 3 2 2 3 5 7 6 6 5 6
12 13 13 13 12 11 12 14 16 13 10 18 26 30 29 25 24 22 15 16 15 15 17 18 18 18 17 17 17 17 16 16 14 17 16 16 16 15 16 15 15 14 15 15 15 14 14 12 15 15 15 13 11 11 14 14 15 11 10 11 12 9 8 5 5 4 3 1 2 3 5 3 1 2 3 4 3 2 2 5 7 7 6 6 6
11 11 11 12 13 14 12 11 11 14 15 21 21 25 30 31 30 17 12 14 15 14 14 15 16 15 16 17 16 16 16 16 19 24 21 17 18 20 18 15 13 11 12 14 15 12 12 11 10 9 11 11 10 13 14 13 10 10 11 12 10 10 9 6 5 3 3 3 2 3 3 3 2 3 3 1 2 2 2 2 6 6 7 8 7
10 11 12 13 14 15 15 13 13 12 12 22 27 24 24 29 26 17 16 13 13 14 14 14 14 14 15 16 17 16 16 16 21 26 25 23 18 21 18 16 13 12 11 9 13 15 13 13 10 11 14 16 16 18 17 16 14 14 12 11 10 10 10 9 5 6 8 5 4 4 3 4 4 3 2 1 1 2 3 3 2 4 9 9 7
11 12 11 11 11 12 15 15 15 12 10 17 27 29 28 26 23 19 16 14 13 13 11 12 12 12 15 22 20 18 18 17 23 27 28 23 19 20 18 17 15 14 12 9 8 9 13 14 13 15 17 17 19 20 21 19 19 17 18 18 17 11 12 12 10 7 3 3 5 6 3 2 3 2 2 0 1 1 1 2 2 3 9 8 7
11 9 9 10 10 10 13 15 18 17 12 13 21 25 28 29 23 15 15 15 14 13 12 12 11 11 12 16 22 19 20 22 28 27 29 25 21 20 19 18 17 17 15 15 14 13 11 10 9 11 11 15 14 13 14 19 18 14 11 10 12 15 14 9 9 7 1 5 6 10 6 3 5 2 3 3 1 0 0 0 3 3 3 3 3
Wind_Direction
190 178 169 173 155 152 137 133 124 126 126 121 123 121 120 127 129 124 120 126 122 123 115 105 107 109 121 124 117 107 102 104 110 120 131 137 136 122 114 106 108 119 133 137 139 137 134 132 131 133 136 135 132 130 130 128 130 131 128 126 124 121 122 121 121 120 116 118 118 115 111 110 110 108 106 102 103 95 94 95 86 89 88 84 83
176 173 171 165 152 146 137 140 131 133 130 132 135 126 128 128 133 132 127 128 122 126 123 116 105 112 122 117 106 103 107 121 124 124 130 131 129 116 119 115 117 125 133 139 141 139 135 131 134 134 135 135 135 132 130 126 128 130 127 126 123 121 121 122 123 122 121 117 117 116 115 113 113 111 109 108 105 104 104 101 99 94 89 85 82
175 168 173 164 154 149 144 129 128 139 133 134 137 130 129 133 140 139 134 131 128 130 129 120 117 111 114 110 109 106 109 116 105 122 125 126 107 90 129 129 127 131 137 139 139 138 136 133 134 135 135 135 135 134 133 136 130 128 124 124 123 124 124 124 123 117 110 111 112 112 108 105 105 108 109 105 102 102 103 102 100 98 96 94 88
175 170 165 163 159 154 138 140 143 141 133 132 131 127 127 125 128 125 123 123 123 121 121 126 116 113 114 103 103 96 103 102 103 98 117 125 116 113 119 125 129 133 136 138 143 138 136 132 130 136 142 142 138 137 137 139 136 135 132 131 130 127 126 123 118 118 121 123 122 118 116 115 113 107 102 103 108 104 99 98 93 94 92 90 90
177 171 165 162 160 150 145 144 145 133 132 127 119 119 120 118 115 120 119 115 114 112 100 104 117 115 113 108 106 93 87 100 97 94 101 118 124 120 107 114 126 130 125 131 141 145 142 139 135 139 140 142 140 139 137 137 139 138 132 129 129 132 132 130 130 131 130 129 129 129 126 124 121 119 117 113 111 109 107 106 107 104 99 94 92
167 171 165 159 159 156 149 145 134 129 126 128 122 134 129 126 130 128 131 127 127 126 121 108 99 109 102 107 100 107 113 95 77 87 95 118 127 117 114 116 119 114 114 130 150 153 141 139 138 138 142 141 140 142 140 139 137 134 134 136 135 135 134 134 133 132 130 129 128 129 129 127 126 123 123 123 118 116 115 111 108 106 102 96 94
171 161 163 160 159 156 156 144 140 138 133 133 129 132 135 138 140 129 121 123 125 136 126 120 125 118 106 105 105 109 100 97 92 79 104 93 113 108 115 121 120 107 105 91 113 137 135 139 137 138 142 140 141 145 144 142 141 139 137 138 138 137 136 135 134 133 131 129 129 128 127 126 127 126 124 123 123 121 120 116 109 102 96 90 88
165 165 163 167 162 159 159 145 143 137 129 132 129 136 137 139 148 136 125 122 117 108 113 121 117 114 95 87 103 110 104 94 97 99 65 114 103 105 108 122 126 116 113 101 78 120 138 141 133 137 140 141 141 143 144 144 143 140 140 138 138 141 141 141 140 139 136 134 132 131 130 129 126 125 122 120 121 121 121 118 114 104 97 89 88
164 170 169 176 165 157 154 155 157 147 139 141 124 131 140 141 152 142 135 135 126 117 120 122 115 106 87 85 70 105 100 99 114 110 92 99 109 106 101 108 119 123 115 113 103 94 107 116 138 137 138 145 142 140 142 146 146 146 145 144 139 141 140 142 146 145 145 145 142 138 135 133 133 131 130 127 125 126 126 125 120 115 114 105 102
164 173 172 174 171 159 157 158 157 154 144 140 141 136 131 140 145 139 136 133 133 131 126 116 116 113 85 63 65 51 85 95 89 84 74 40 109 111 119 124 138 130 127 126 110 105 104 97 114 143 143 151 152 146 144 146 149 151 156 156 154 152 154 152 151 151 155 155 153 149 146 143 140 134 132 131 130 133 134 133 133 135 135 131 111
172 170 173 170 164 159 158 157 147 147 136 139 139 141 136 136 145 136 136 140 142 139 135 126 116 106 83 72 61 52 49 56 74 86 93 80 25 112 107 127 141 135 125 123 120 115 107 101 95 98 124 117 114 145 154 155 157 158 161 161 161 160 162 163 160 160 163 162 160 161 162 160 155 154 155 156 150 142 141 148 161 168 165 168 183
175 173 171 166 163 163 162 159 156 156 149 148 154 152 151 144 146 144 129 106 118 124 122 110 97 80 92 73 54 25 37 51 67 77 102 94 64 99 116 124 128 140 128 128 125 119 112 103 94 101 102 107 110 105 109 105 120 147 144 148 162 171 169 170 171 172 176 177 176 172 173 172 172 178 180 177 176 176 182 188 192 190 186 192 226
179 172 168 162 163 157 159 167 163 160 159 163 164 155 146 142 143 145 139 130 128 137 137 123 115 79 67 77 67 36 32 41 60 59 78 99 95 91 126 125 116 121 122 125 126 122 121 113 108 107 108 115 108 104 105 103 106 136 155 168 167 170 172 181 181 182 185 186 188 186 186 186 185 190 191 190 187 188 190 198 204 201 202 205 205
183 173 166 164 162 164 167 170 169 168 163 164 158 151 149 142 141 137 157 143 148 157 155 129 126 138 135 111 64 65 41 40 46 38 33 78 109 88 117 121 120 104 98 110 111 121 120 120 118 109 100 99 97 103 103 95 89 110 127 141 157 173 183 185 197 198 200 209 210 205 198 198 200 196 195 199 203 205 204 206 211 208 213 218 220
184 177 167 170 169 164 173 171 172 163 157 159 154 154 161 152 153 152 153 141 140 174 167 157 142 135 116 99 134 121 75 44 40 32 11 39 79 122 125 112 110 90 118 110 115 116 108 121 116 113 106 97 89 92 96 99 102 89 87 79 97 161 167 177 180 177 193 196 203 207 212 210 215 211 208 209 215 217 218 214 220 231 234 238 231
189 182 174 170 169 173 174 175 175 167 159 158 163 160 163 160 160 156 155 145 154 184 213 146 141 136 146 157 163 143 135 218 149 48 348 7 79 117 197 129 112 102 132 118 123 121 119 122 115 110 102 92 93 102 100 92 118 104 99 94 72 140 172 184 191 188 174 179 181 197 198 204 205 205 205 209 204 211 216 217 215 223 232 234 235
189 187 181 173 171 171 173 176 174 169 166 162 166 168 167 168 164 159 163 159 161 166 196 205 168 170 141 113 74 155 206 162 131 68 33 133 54 22 53 37 106 102 93 93 87 98 120 113 108 104 105 102 107 113 110 119 129 128 118 108 114 106 146 197 199 198 192 188 178 183 188 191 190 192 195 199 210 204 204 207 214 218 214 207 201
187 185 184 175 174 175 174 172 174 171 173 170 169 166 167 169 173 165 165 171 164 162 172 236 209 169 172 144 138 168 168 162 153 186 18 9 353 26 16 31 43 94 79 86 116 114 81 105 108 116 113 105 105 112 122 134 150 137 133 138 137 140 162 243 209 203 203 197 187 177 171 169 164 167 165 164 146 128 118 112 99 99 100 94 89
189 188 186 179 172 176 174 172 175 174 169 165 171 171 170 172 169 170 170 162 163 167 171 175 192 271 219 170 115 117 136 149 183 103 159 211 27 79 10 24 41 74 103 115 119 124 111 111 124 125 113 115 130 141 145 147 148 130 129 132 132 134 141 165 341 212 197 195 188 181 174 169 166 166 163 161 156 146 141 131 120 115 108 100 94
186 187 186 180 175 174 177 173 175 177 168 172 172 170 171 171 172 170 166 171 171 171 176 175 175 184 168 157 119 143 159 185 159 171 166 166 188 351 31 9 48 45 65 146 181 144 140 144 133 128 131 132 140 148 141 137 132 135 132 139 138 142 145 154 161 25 200 186 184 176 172 166 161 159 158 160 157 153 148 141 130 116 104 97 91
188 185 185 183 178 176 175 174 174 177 174 172 171 171 171 165 172 172 170 174 180 176 171 179 193 172 150 139 120 146 150 74 146 90 163 158 171 180 173 27 55 33 27 19 353 354 92 132 130 131 146 146 146 137 140 133 129 137 138 144 145 141 143 144 136 128 39 182 171 169 163 160 157 154 151 149 145 136 126 120 115 106 100 96 90
189 189 183 187 184 177 174 175 176 176 178 174 171 173 173 172 173 172 175 174 179 177 176 179 189 166 183 149 125 139 147 137 182 172 190 185 167 183 177 167 175 159 78 71 48 40 57 108 120 128 132 135 137 135 136 139 140 138 148 147 144 144 142 141 136 120 102 107 143 148 147 144 143 140 135 129 122 120 119 113 108 102 98 94 89
185 188 187 186 185 179 175 176 176 174 178 172 173 174 175 173 175 173 174 173 176 176 179 175 174 161 182 181 173 172 171 178 178 182 169 168 157 166 160 184 162 135 104 26 61 52 64 59 105 128 132 133 140 142 143 144 144 146 149 151 146 149 142 136 131 121 103 93 86 88 111 128 131 131 131 125 120 116 112 107 102 98 95 90 86
185 186 187 186 183 179 175 173 175 176 179 173 173 176 173 171 171 174 175 178 176 174 177 176 178 178 183 186 170 164 149 163 165 172 177 170 155 150 160 121 98 76 127 109 56 59 44 51 43 102 130 132 139 144 140 144 149 154 150 156 149 138 135 132 130 120 110 104 99 94 85 85 94 109 121 117 114 110 106 102 99 95 92 88 86
186 186 188 184 182 178 174 174 178 179 178 175 174 174 171 171 173 176 173 177 180 178 178 182 180 182 184 181 161 169 171 144 161 168 147 135 139 146 144 105 122 122 116 103 108 59 44 38 27 72 148 138 133 139 140 141 144 161 147 145 137 133 130 127 121 116 114 109 105 102 99 99 99 106 107 105 105 103 100 97 94 91 89 86 84
182 187 185 184 183 184 177 177 178 180 179 176 173 172 170 172 173 173 181 180 173 180 183 180 179 182 168 168 176 173 154 156 168 162 162 152 159 157 146 101 113 119 92 98 54 119 91 47 10 17 133 142 137 135 141 137 134 148 139 132 132 131 128 123 119 113 111 106 103 97 93 91 91 92 97 102 101 98 95 92 88 85 82 80 78
184 182 182 185 182 179 180 176 175 174 175 172 162 163 169 170 174 172 165 171 173 176 183 176 179 178 179 184 177 156 160 165 157 177 173 172 165 158 150 136 110 128 132 82 153 352 133 79 15 56 92 135 142 136 135 131 128 134 130 125 124 129 129 125 122 117 113 106 103 101 97 94 93 92 88 85 86 88 87 85 82 80 78 76 73
187 177 183 185 183 182 179 178 174 169 173 165 160 171 173 171 171 167 173 168 170 175 175 178 181 180 180 176 168 183 154 162 169 167 181 168 157 159 158 152 146 143 143 147 180 120 174 127 96 46 135 136 121 117 126 127 124 127 125 122 124 127 127 124 121 118 114 110 107 104 102 101 99 98 97 96 94 91 88 85 83 82 80 78 77
182 184 180 183 185 182 183 181 176 172 170 170 171 174 173 171 174 179 177 175 172 180 174 179 181 178 175 177 184 172 164 157 159 163 163 165 168 171 172 165 165 145 153 164 183 152 203 222 147 155 124 144 129 121 131 115 126 130 119 119 122 122 129 125 124 120 117 114 111 109 107 106 104 100 99 99 98 96 93 89 84 80 77 77 76
181 182 185 180 183 183 183 183 176 168 169 169 168 168 173 175 178 182 179 172 178 177 178 172 176 177 176 179 175 171 158 160 166 157 166 175 173 180 179 174 167 161 158 157 163 180 161 191 240 141 173 157 121 119 114 119 120 131 112 113 118 122 127 125 124 122 120 118 116 115 114 110 105 101 100 99 98 96 91 86 83 79 74 72 72
178 180 186 183 179 181 183 182 176 173 172 171 165 168 170 174 177 179 173 168 173 177 178 176 184 174 181 183 182 171 162 167 156 157 167 162 180 179 182 177 190 184 152 147 136 199 169 165 145 44 138 153 132 123 116 114 129 131 117 114 112 121 119 118 121 120 119 120 119 117 114 111 105 102 101 98 95 93 88 83 80 77 72 66 65
184 180 179 184 179 180 182 179 178 178 175 172 170 168 171 178 176 174 173 169 172 177 173 181 174 180 175 183 182 176 166 152 152 161 163 173 174 170 172 178 155 173 153 153 156 153 152 124 129 122 130 132 142 131 125 110 94 113 113 109 111 114 111 112 118 120 120 118 116 113 110 108 106 102 99 97 96 94 91 87 83 78 72 67 63
183 177 178 182 181 179 180 178 180 180 177 173 171 169 173 174 177 174 170 172 173 175 169 176 178 177 178 182 184 178 162 161 159 155 160 160 162 159 153 149 146 145 153 139 130 109 77 43 127 141 138 135 121 150 127 127 121 104 93 82 97 95 100 107 110 113 113 111 111 109 108 107 105 103 101 102 104 104 100 94 88 84 82 79 75
183 179 179 179 180 178 178 181 181 179 179 175 171 169 172 170 173 172 169 173 175 171 167 177 179 183 179 179 180 170 172 167 159 164 160 164 173 162 175 164 155 155 166 133 141 146 143 139 129 114 141 228 119 214 146 137 125 116 103 97 64 57 97 102 110 107 106 105 105 105 105 105 105 107 108 110 114 113 109 105 100 97 93 91 88
194 184 176 175 175 183 180 176 179 179 179 178 175 173 173 172 172 172 172 174 175 172 174 180 179 180 177 178 177 170 167 165 169 168 163 167 170 176 172 164 153 154 164 150 139 145 147 150 142 149 164 168 150 164 150 115 113 117 115 105 101 85 35 56 92 90 99 102 102 103 105 107 109 112 116 119 119 116 114 112 110 104 98 96 92
184 186 180 177 173 175 187 180 177 179 178 178 180 181 175 172 172 173 173 175 176 178 179 179 177 174 178 177 178 170 170 172 172 167 170 166 171 175 171 168 154 158 152 152 152 142 151 137 175 165 163 145 114 116 109 109 119 115 108 109 103 102 111 86 81 94 93 96 95 98 104 109 113 118 122 125 126 126 124 120 114 105 96 88 82
182 181 181 178 177 178 177 181 182 180 178 176 179 184 184 176 174 175 176 177 178 181 183 180 175 176 178 181 175 173 172 174 174 173 166 173 172 167 170 162 159 150 145 147 141 141 147 155 137 145 141 98 99 122 150 133 118 101 97 99 122 124 108 108 93 67 71 77 78 81 96 109 119 124 128 132 135 133 129 122 114 102 91 84 77
188 180 177 179 179 180 179 177 178 181 183 176 177 183 185 182 176 178 177 178 180 181 181 178 177 178 177 180 174 172 173 176 179 179 174 173 169 169 163 159 151 150 148 146 144 149 149 154 153 140 173 148 144 148 177 156 140 131 117 115 101 61 133 117 73 58 50 91 107 73 79 80 97 122 130 136 136 131 126 121 112 103 89 85 80
176 184 179 180 184 181 180 176 177 177 183 182 177 179 184 184 181 177 176 180 183 183 180 176 176 179 181 178 172 175 178 181 176 176 176 175 171 172 166 159 156 154 154 153 150 148 151 149 146 145 136 142 149 149 155 164 103 145 145 144 142 144 55 134 125 80 77 92 58 71 108 120 123 129 127 122 125 121 119 118 115 111 105 101 81
177 180 185 182 180 184 182 180 180 176 172 176 180 180 182 186 187 185 177 177 180 184 181 178 177 178 179 179 177 180 183 183 178 178 173 174 173 165 164 155 156 155 156 153 150 152 152 159 159 157 164 148 133 76 97 143 144 165 210 172 160 163 159 117 99 144 135 142 145 130 98 119 104 110 100 96 92 105 102 95 84 104 112 93 54
179 180 181 183 181 185 186 177 175 176 177 177 176 181 185 186 190 189 183 178 177 180 183 182 180 178 178 180 183 186 186 183 181 176 178 173 167 166 166 160 159 157 153 154 156 149 152 153 149 144 144 159 169 152 163 176 184 184 161 154 135 133 135 134 120 345 140 156 146 153 161 163 155 160 155 143 104 82 81 80 123 122 108 90 78
181 180 176 180 180 183 184 184 181 183 184 180 177 179 180 183 185 189 189 184 180 179 180 181 181 181 181 179 186 190 186 181 179 178 177 174 174 170 166 166 162 159 157 157 162 166 161 163 165 161 163 172 173 183 177 185 162 101 143 164 146 152 126 112 77 213 181 176 162 176 175 169 167 148 163 151 130 126 146 158 148 140 158 116 109
199 174 175 178 180 181 181 179 180 188 190 183 178 180 182 182 181 182 187 190 185 180 181 180 179 179 183 185 183 190 191 180 178 180 178 178 177 171 168 170 169 164 161 165 169 171 172 173 166 168 177 178 185 181 183 151 163 168 167 162 137 146 166 160 177 160 204 177 168 167 171 176 190 162 167 167 155 170 177 172 180 190 163 137 131
193 181 174 177 179 181 184 181 178 183 187 189 184 183 182 181 181 182 185 184 187 185 181 183 182 178 180 183 184 180 185 187 181 179 180 180 177 172 172 174 175 171 167 167 165 171 176 169 171 186 179 184 177 168 163 157 168 155 158 154 164 168 166 181 178 180 156 165 155 161 145 144 226 166 161 187 178 173 187 180 190 165 147 140 129
181 187 182 177 178 178 181 191 189 181 182 178 184 188 184 182 183 183 184 187 183 187 183 182 182 182 180 181 179 178 186 186 183 179 176 181 179 172 173 174 176 176 179 175 171 173 177 175 179 182 186 176 171 188 184 176 162 161 160 161 178 181 174 178 173 132 158 158 125 134 156 173 181 177 168 172 188 176 193 207 186 165 151 140 137
186 182 184 180 181 181 181 182 189 192 192 180 176 183 192 188 185 183 184 186 192 184 182 182 182 182 181 177 175 178 182 181 184 179 175 173 175 173 173 175 178 183 182 179 182 176 173 180 180 184 193 171 183 184 172 154 158 171 173 182 168 167 166 153 77 133 116 169 168 136 123 184 200 175 169 168 189 198 193 190 184 170 161 156 145
196 182 181 182 180 181 188 183 178 180 192 191 183 176 180 189 191 186 184 183 189 192 187 183 182 181 181 179 176 177 177 180 182 180 172 171 171 173 174 178 180 181 183 183 183 188 188 188 190 192 174 181 174 149 159 172 176 166 170 159 153 137 114 109 81 67 128 206 156 169 167 150 153 185 169 160 180 189 184 188 184 176 172 154 145
203 185 181 177 179 182 182 187 191 185 182 180 192 187 181 180 181 185 189 190 191 194 189 188 183 181 180 178 176 177 177 178 182 179 175 166 171 173 175 177 179 182 189 191 184 179 181 181 184 173 172 150 143 155 161 159 141 122 107 101 100 122 128 130 137 165 189 192 202 167 131 160 168 191 154 148 174 168 160 184 181 190 174 157 143
196 188 184 184 182 180 180 183 189 193 187 182 181 188 190 182 176 181 184 188 193 192 190 186 184 182 184 182 177 175 175 183 181 179 174 165 169 173 176 176 177 178 187 183 179 173 171 167 139 126 133 137 139 145 151 153 150 139 127 122 156 157 144 150 159 174 199 172 197 198 136 147 166 181 149 160 171 165 175 175 190 204 175 149 136
197 191 182 182 182 181 182 184 187 188 191 192 187 184 185 187 183 180 180 185 191 190 189 186 186 186 188 186 183 176 175 182 183 183 173 166 170 174 175 175 174 181 184 175 167 172 158 148 140 143 144 140 144 150 156 158 155 157 154 172 171 157 172 172 163 179 148 190 196 175 153 176 122 187 146 166 178 197 190 181 167 187 166 147 144
197 186 179 179 182 185 188 187 184 183 184 189 193 190 187 184 183 184 180 181 185 188 184 186 190 188 188 192 190 185 180 177 180 185 178 170 169 175 177 176 181 185 185 174 174 162 153 144 147 145 149 149 148 154 161 162 168 178 186 166 149 172 176 170 137 116 132 233 189 180 177 169 151 184 160 124 204 145 129 188 171 166 150 140 152